Voltar ao catálogo

COSMOS 1191

AtivoMilitarHEO
NORAD 11871·PAYLOAD·🇷🇺 Russia

Lançado Jul 2, 1980 de Plesetsk Cosmodrome

Loading…

Próximas Passagens (próximas 24 horas)

TLE

AtualizadoSource: Space-Track

Época: Sep 13, 2026, 18:05 UTC

1 11871U 80057A   26256.75365541 -.00000200  00000-0  00000+0 0  9997
2 11871  66.0465  64.5777 6619269  17.9585 357.1528  2.00848041245242

Acompanhe COSMOS 1191 em tempo real com AllMySat

Download on the App Store